Regional Weather Roundup
Issued by NWS

Home | Current Version | Previous Version | Graphics & Text | Print | Product List | Glossary On
Versions: 1 2 3 4 5 6 7 8 9 10 11 12 13 14 15 16 17 18 19 20 21 22 23 24 25 26 27 28 29 30 31 32 33 34 35 36 37 38 39 40 41 42 43 44 45 46 47 48 49 50
000
ASUS43 KLOT 230309
RWRIL

ILLINOIS REGIONAL WEATHER ROUNDUP
NATIONAL WEATHER SERVICE CHICAGO/ROMEOVILLE IL
1000 PM CDT THU JUN 22 2017

NOTE: "FAIR" INDICATES FEW OR NO CLOUDS BELOW 12,000 FEET WITH NO
SIGNIFICANT WEATHER AND/OR OBSTRUCTIONS TO VISIBILITY.

* THESE STATIONS ARE NOT UNDER NWS QUALITY CONTROL. THEY ALSO MAY NOT
  REPORT WEATHER SUCH AS PRECIPITATION OR FOG.

ILZ001-002-007-009-015-016-024-230400-
NORTHWEST ILLINOIS

CITY           SKY/WX    TMP DP  RH WIND       PRES   REMARKS
MOLINE         PTCLDY    78  71  79 S5        29.69R HX  80
STERLING*      CLOUDY    78  72  81 CALM      29.71S HX  80
SAVANNA*       PTCLDY    77  72  83 S8        29.70R
$$

ILZ003-004-008-010-011-017-018-230400-
NORTH CENTRAL ILLINOIS

CITY           SKY/WX    TMP DP  RH WIND       PRES   REMARKS
ROCKFORD       CLOUDY    79  71  76 S9        29.72R HX  82
FREEPORT*      CLOUDY    75  70  84 S8        29.72R
ROCHELLE*      CLOUDY    77  72  82 SW5       29.73R
DE KALB*       CLOUDY    76  72  88 S16       29.74R
PERU*          PTCLDY    76  71  86 S12       29.74R
$$

ILZ005-006-012>014-019>023-230400-
NORTHEAST ILLINOIS

CITY           SKY/WX    TMP DP  RH WIND       PRES   REMARKS
CHICAGO-OHARE  CLOUDY    79  69  71 S16       29.72S HX  81
CHICAGO-MIDWAY CLOUDY    79  71  76 S16       29.74R HX  82
AURORA         CLOUDY    78  72  81 S10       29.74R HX  80
LANSING*       CLOUDY    77  68  73 SW15G24   29.76R
JOLIET*        CLOUDY    78  73  83 S13       29.74S HX  81
WAUKEGAN       PTCLDY    79  70  74 SW9       29.71R HX  82
DUPAGE AIRPORT CLOUDY    77  73  87 S16       29.72S
WHEELING       LGT RAIN  78  74  87 S9        29.74R HX  81
MORRIS*        MOCLDY    76  71  84 S13       29.73S
ROMEOVILLE*    CLOUDY    77  69  76 SW10G17   29.75R
NORTHERLY ISL    N/A     78  68  71 S16         N/A  HX  80
$$

LMZ740>746-230400-
SOUTHERN LAKE MICHIGAN

STATION/POSITION SKY/WX   TEMP    WIND        PRES    VSBY  WAVE
                          AIR SEA DIR/SP/G                  HT/PER
                          (F)     (DEG/KT/KT) (MB)    (MI)  (FT/S)
SOUTHERN BUOY              68 61  190/ 14/ 16 1005.3          1/ 4
WILMETTE HARBOR            73 65  200/ 10/ 14   N/A           2/ 3
HARRISON CRIB              78     200/ 27/ 30   N/A
BURNHAM HARBOR             78                   N/A
CALUMET HARBOR             78     190/ 10/ 16 1006.9R
BURNS HARBOR               77     190/ 12/ 20 1007.8R
MICHIGAN CITY              77     180/ 15/ 18   N/A
MICHIGAN CITY 6N           74 68  200/ 16/ 19   N/A           2/ 3
ST. JOSEPH                 74 69  210/ 14/ 16 1007.3          3/ 4
$$

ILZ025>027-034>036-040-047-049-050-058-095>099-230400-
WEST-CENTRAL ILLINOIS

CITY           SKY/WX    TMP DP  RH WIND       PRES   REMARKS
QUINCY         CLEAR     77  72  84 S7        29.71R
GALESBURG*     CLOUDY    75  71  86 CALM      29.73R
MACOMB*        CLOUDY    75  71  88 CALM      29.74R
JACKSONVILLE*  CLEAR     76  73  88 SE7       29.73R
PITTSFIELD*    CLEAR     76  73  89 SE5       29.73R
$$

ILZ028>032-037-038-041>044-048-051>054-059>061-230400-
CENTRAL ILLINOIS

CITY           SKY/WX    TMP DP  RH WIND       PRES   REMARKS
PONTIAC        CLOUDY    76  74  92 S13       29.75S
BLOOMINGTON    CLOUDY    74  72  93 S13       29.77R
DECATUR        CLOUDY    74  72  93 S9        29.76S
PEORIA         CLEAR     76  73  91 S12G20    29.72R
LACON*         PTCLDY    76  72  88 S8        29.71R
LINCOLN*       CLOUDY    76  75  96 S6        29.74S
SPRINGFIELD    CLOUDY    78  75  90 S8        29.74R HX  81
TAYLORVILLE    PTCLDY    74  73  99 S10       29.75S
$$

ILZ033-039-045-046-055>057-062-063-230400-
EAST-CENTRAL ILLINOIS

CITY           SKY/WX    TMP DP  RH WIND       PRES   REMARKS
CHAMPAIGN      CLOUDY    74  71  91 S12       29.78S
RANTOUL*       CLOUDY    74  73  98 S10       29.77S FOG
MATTOON        CLOUDY    74  73  97 S10       29.77F
PARIS*         CLOUDY    73  71  93 S8        29.81S
$$

ILZ079-100>102-230400-
SOUTHWEST ILLINOIS

CITY           SKY/WX    TMP DP  RH WIND       PRES   REMARKS
ALTON          PTCLDY    75  73  94 SE12      29.75S
BELLEVILLE     CLOUDY    76  74  93 S7        29.77R
CAHOKIA*       CLOUDY    79  73  82 SE8       29.75R HX  82
SPARTA*        CLOUDY    76  74  94 SE3       29.78R
$$

ILZ064>066-069>071-074>076-080>082-084>086-088>090-092>094-230400-
SOUTH-CENTRAL ILLINOIS

CITY           SKY/WX    TMP DP  RH WIND       PRES   REMARKS
CARBONDALE     CLOUDY    77  76  96 MISG      29.78R
CAIRO*         RAIN      80  75  86 SE10      29.78R HX  84
EFFINGHAM*     CLOUDY    74  74  97 SE6       29.81R
MARION         CLOUDY    77  77 100 SE3       29.79S
MT. VERNON     CLOUDY    75  73  93 CALM      29.79R
CENTRALIA*     CLOUDY    75  74  97 SE6       29.77R
SALEM*         CLOUDY    76  73  91 SE6       29.79R
METROPOLIS*    CLOUDY    80  75  83 S5        29.81R HX  85
$$

ILZ067-068-072-073-078-083-087-091-230400-
SOUTHEAST ILLINOIS

CITY           SKY/WX    TMP DP  RH WIND       PRES   REMARKS
LAWRENCEVILLE  CLOUDY    73  72  96 SE8       29.81S
FLORA*         CLOUDY   N/A N/A N/A SE5       29.80S
FAIRFIELD*     CLOUDY    74  74 100 SE5       29.78S
HARRISBURG*    PTCLDY    76  75  98 SE6       29.80R
ROBINSON*      CLOUDY    73  71  95 S7        29.81S
CARMI*         CLOUDY    74  74  99 SE7       29.79S
$$

ABBREVIATIONS USED IN REMARKS
   TC - TEMPERATURE IN CELSIUS
  WCI - WIND CHILL INDEX
   HX - HEAT INDEX
  VSB - VISIBILITY
$$




USA.gov is the U.S. government's official web portal to all federal, state and local government web resources and services.